Location: Maynard F. Jordan Observatory
(44.9000°N, 68.6700°W)
Time: 14:57:56
(UTC-05:00)

Cosmos 2297 Rocket - Visible Passes

Search period start: 01 March 2017 00:00
Search period end: 11 March 2017 00:00
Orbit: 840 x 843 km, 71.0° (Epoch: 28 February)

Date Brightness Start Highest point End Pass type
(mag) Time Alt. Az. Time Alt. Az. Time Alt. Az.
01 Mar 4.1 03:47:16 10° N 03:52:07 28° NE 03:56:56 10° ESE visible
01 Mar 2.4 05:30:58 10° NW 05:36:27 52° WSW 05:41:54 10° S visible
01 Mar 2.7 18:40:30 10° S 18:45:35 36° ESE 18:50:41 10° NE visible
01 Mar 3.5 20:24:19 10° WSW 20:29:34 38° NW 20:34:51 10° NNE visible
02 Mar 4.2 03:32:13 10° N 03:36:59 27° NE 03:41:44 10° ESE visible
02 Mar 2.3 05:15:52 10° NW 05:21:22 55° WSW 05:26:50 10° S visible
02 Mar 2.8 18:25:30 10° SSE 18:30:30 34° ESE 18:35:32 10° NE visible
02 Mar 3.4 20:09:10 10° SW 20:14:27 40° NW 20:19:47 10° NNE visible
03 Mar 4.2 03:17:10 10° N 03:21:52 26° NE 03:26:31 10° ESE visible
03 Mar 2.2 05:00:44 10° NNW 05:06:16 58° WSW 05:11:47 10° S visible
03 Mar 2.9 18:10:30 10° SSE 18:15:26 32° ESE 18:20:24 10° NE visible
03 Mar 3.3 19:54:00 10° SW 19:59:20 42° WNW 20:04:42 10° NNE visible
04 Mar 4.3 03:02:06 10° N 03:06:43 25° NE 03:11:18 10° ESE visible
04 Mar 2.2 04:45:37 10° NNW 04:51:12 61° WSW 04:56:44 10° S visible
04 Mar 2.9 17:55:30 10° SSE 18:00:22 30° ESE 18:05:15 10° NE visible
04 Mar 3.3 19:38:50 10° SW 19:44:13 44° WNW 19:49:38 10° NNE visible
05 Mar 4.3 02:47:03 10° N 02:51:35 24° NE 02:56:05 10° ESE visible
05 Mar 2.1 04:30:31 10° NNW 04:36:07 64° WSW 04:41:40 10° S visible
05 Mar 3.2 19:23:41 10° SW 19:29:06 46° WNW 19:34:34 10° NNE visible
05 Mar 5.2 21:13:44 10° NW 21:14:42 10° NW 21:15:40 10° NNW visible
06 Mar 4.3 02:32:00 10° N 02:36:27 23° NE 02:40:52 10° E visible
06 Mar 2.1 04:15:24 10° NNW 04:21:01 67° WSW 04:26:36 10° SSE visible
06 Mar 3.2 19:08:32 10° SW 19:13:59 48° WNW 19:19:29 10° NNE visible
06 Mar 5.2 20:58:09 10° NW 20:59:33 11° NW 21:00:56 10° NNW visible
07 Mar 4.4 02:16:58 10° N 02:21:19 22° NE 02:25:38 10° E visible
07 Mar 2.0 04:00:17 10° NNW 04:05:56 71° WSW 04:11:32 10° SSE visible
07 Mar 3.1 18:53:24 10° SW 18:58:52 50° WNW 19:04:23 10° NNE visible
07 Mar 5.1 20:42:40 10° NW 20:44:22 11° NW 20:46:06 10° NNW visible
08 Mar 4.4 02:01:55 10° N 02:06:11 21° NE 02:10:25 10° E visible
08 Mar 2.0 03:45:11 10° NNW 03:50:51 75° WSW 03:56:28 10° SSE visible
08 Mar 3.9 05:33:09 10° W 05:33:50 10° W 05:34:32 10° WSW visible
08 Mar 3.1 18:38:15 10° SW 18:43:46 53° WNW 18:49:19 10° NNE visible
08 Mar 5.1 20:27:14 10° WNW 20:29:13 12° NW 20:31:12 10° NNW visible
09 Mar 4.4 01:46:53 10° N 01:51:02 20° NE 01:55:10 10° E visible
09 Mar 2.0 03:30:05 10° NNW 03:35:45 78° WSW 03:41:23 10° SSE visible
09 Mar 3.9 05:17:22 10° W 05:18:48 11° W 05:20:14 10° WSW visible
09 Mar 3.0 18:23:08 10° SW 18:28:40 55° WNW 18:34:14 10° NNE visible
09 Mar 5.1 20:11:50 10° WNW 20:14:03 12° NW 20:16:17 10° NNW visible
10 Mar 4.6 01:31:50 10° N 01:41:24 - E 01:34:01 17° NNE visible
10 Mar 3.3 03:14:58 10° NNW 03:23:30 31° SSE 03:26:18 10° SSE visible
10 Mar 4.0 05:05:37 10° WSW 05:05:37 10° WSW 05:05:39 10° WSW visible
10 Mar 2.9 18:07:59 10° SW 18:13:33 58° WNW 18:19:09 10° NNE visible
10 Mar 5.0 19:56:27 10° WNW 19:58:54 13° NW 20:01:20 10° NNW visible
